Location: Great Snoring
(52.8667°N, 0.8833°E)
Time: 21:55:17
(UTC+00:00)

USA 234 - Pass Details

Date: 19 May 2025
Orbit: 1097 x 1111 km, 123.0° (Epoch: 13 June)

Event Time Altitude Azimuth Distance (km) Brightness Sun altitude
Rises 22:31:34 0° 65° (ENE) 3,922 6.2 -15.0°
Reaches altitude 10° 22:34:02 10° 65° (ENE) 2,965 5.6 -15.2°
Maximum altitude 22:40:36 82° 339° (NNW) 1,120 3.4 -15.5°
Drops below altitude 10° 22:47:10 10° 253° (WSW) 2,968 5.5 -15.8°
Sets 22:49:39 0° 252° (WSW) 3,926 6.1 -15.9°
